Location: Feigenhofen
(48.4939°N, 10.7793°E)
Time: 22:10:09
(UTC+00:00)

NOSS 2-2 (D) - Pass Details

Date: 26 May 2022
Orbit: 437 x 1764 km, 63.3° (Epoch: 11 June)

Event Time Altitude Azimuth Distance (km) Brightness Sun altitude
Rises 23:59:34 0° 317° (NW) 2,972 7.6 -19.7°
Reaches altitude 10° 00:01:34 10° 315° (NW) 2,196 6.8 -19.6°
Maximum altitude 00:06:35 73° 232° (SW) 935 4.2 -19.4°
Enters shadow 00:11:38 19° 151° (SSE) 2,322 6.1 -19.2°
